SCP
0 0 0 0 0 0 0 0 0 0 0 0 0 0 0 0 0 0 0 0 0 0 0 0 0 0 0 0 0 0 0 0 0 0 0 0 0 0 0 -0 0 0 0 0
0 0 0 0 0 0 0 0 0 0 0 0 0 0 0 0 0 0 0 0 0 0 0 0 0 0 0 0 0 0 0 0 0 0 0 0 0 0 0 0 0 0 0 0
0 0 0 0 0 0 0 0 0 0 0 0 0 0 0 0 0 0 0 0 0 0 0 0 0 0 0 0 0 0 0 0 0 0 0 0 0 0 0 0 0 0 0 0
0 0 0 0 0 0 0 0 0 0 0 0 0 0 0 0 0 0 0 0 0 0 0 0 0 0 0 0 0 0 0 0 0 0 0 0 0 0 0 0 0 0 0 0
0 0 0 0 0 0 0 0 0 0 0 0 0 0 0 0 0 0 0 0 0 0 0 0 0 0 0 0 0 0 0 0 0 0 0 0 0 0 0 0 0 0 0 0
0 0 0 0 0 0 0 0 0 0 0 0 0 0 0 0 0 0 0 0 0 0 0 0 0 0 0 0 0 0 0 0 0 0 0 0 0 0 0 0 0 0 0 0
0 0 0 0 0 0 0 0 0 0 0 0 0 0 0 0 0 0 0 0 0 0 0 0 0 1 1 0 0 0 0 0 0 0 0 0 0 0 0 0 0 0 0 0
0 0 0 0 0 0 0 0 0 0 0 0 0 0 0 0 0 0 0 0 0 0 0 0 0 0 0 0 0 0 0 0 0 0 0 0 0 0 0 0 0 0 0 0
0 0 0 0 0 0 0 0 0 0 0 0 0 0 0 0 0 0 0 0 0 0 0 0 0 0 0 0 0 0 0 0 0 0 0 0 0 0 0 0 0 0 0 0
0 0 0 0 0 0 0 0 0 0 0 0 0 0 0 0 0 0 0 0 0 0 0 0 0 0 0 0 0 0 0 0 0 0 0 0 0 0 0 0 0 0 0 0
0 0 0 0 0 0 0 0 0 0 0 0 0 0 0 0 0 0 0 0 0 0 0 0 0 0 0 0 0 0 0 0 0 0 0 0 0 0 0 0 0 0 0 0
0 0 0 0 0 0 0 0 0 0 0 0 0 0 0 0 0 0 0 0 0 0 0 0 0 0 0 0 0 0 0 0 0 0 0 0 0 0 0 0 0 0 0 0
0 0 0 0 0 0 0 0 0 0 0 0 0 0 0 0 0 0 0 0 0 0 0 0 0 0 0 0 0 0 0 0 0 0 0 0 0 0 0 0 0 0 0 0
0 0 0 0 0 0 0 0 0 0 0 0 0 0 0 0 0 0 0 0 0 0 0 0 0 0 0 0 0 0 0 0 0 0 0 0 0 0 0 0 0 0 0 0
0 0 0 0 0 0 0 0 0 0 0 0 0 0 0 0 0 0 0 0 0 0 0 0 0 0 0 0 0 0 0 0 0 0 0 0 0 0 0 0 0 0 0 0
0 0 0 0 0 0 0 0 0 0 0 0 0 0 0 0 0 0 0 0 0 0 0 0 0 0 0 0 0 0 0 0 0 0 0 0 0 0 0 0 0 0 0 0
0 0 0 0 0 0 0 0 0 0 0 0 0 0 0 0 0 0 0 0 0 0 0 0 0 0 0 0 0 0 0 0 0 0 0 0 0 0 0 0 0 0 0 0
0 0 0 0 0 0 0 0 0 0 0 0 0 0 0 0 0 0 0 0 0 0 0 0 0 0 0 0 0 0 0 0 0 0 0 0 0 0 0 0 0 0 0 0
0 0 0 0 0 0 0 0 0 0 0 0 0 0 0 0 0 0 0 0 0 0 0 0 0 0 0 0 0 0 0 0 0 0 0 0 0 0 0 0 0 0 0 0
0 0 0 0 0 0 0 0 0 0 0 0 0 0 0 0 0 0 0 0 0 0 0 0 0 0 0 0 0 0 0 0 0 0 0 0 0 0 0 0 0 0 0 0
0 0 0 0 0 0 0 0 0 0 0 0 0 0 0 0 0 0 0 0 0 0 0 0 0 0 0 0 0 0 0 0 0 0 0 0 0 0 0 0 0 0 0 0
0 0 0 0 0 0 0 0 0 0 0 0 0 0 0 0 0 0 0 0 0 0 0 0 0 0 0 0 0 0 0 0 0 0 0 0 0 0 0 0 0 0 0 0
0 0 0 0 0 0 0 0 0 0 0 0 0 0 0 0 0 0 0 0 0 0 0 0 0 0 0 0 0 0 0 0 0 0 0 0 0 0 0 0 0 0 0 0
0 0 0 0 0 0 0 0 0 0 0 0 0 0 0 0 0 0 0 0 0 0 0 0 0 0 0 0 0 0 0 0 0 0 0 0 0 0 0 0 0 0 0 0
0 0 0 0 0 0 0 0 0 0 0 0 0 0 0 0 0 0 0 0 0 0 0 0 0 0 0 0 0 0 0 0 0 0 0 0 0 0 0 0 0 0 0 0
0 0 0 0 0 0 0 0 0 0 0 0 0 0 0 0 0 0 0 0 0 0 0 0 0 0 0 0 0 0 0 0 0 0 0 0 0 0 0 0 0 0 0 0
0 0 0 0 0 0 0 0 0 0 0 0 0 0 0 0 0 0 0 0 0 0 0 0 0 0 0 0 0 0 0 0 0 0 0 0 0 0 0 0 0 0 0 0
Wind_Speed
5 5 4 5 6 7 7 8 8 7 8 9 7 5 4 3 3 4 5 6 8 8 8 8 8 8 8 7 7 7 7 7 6 5 4 4 3 3 3 3 3 3 3 2
3 3 3 4 6 8 7 6 6 5 8 7 5 3 3 4 5 6 7 8 8 8 9 9 10 9 9 8 8 8 8 7 6 6 5 5 4 4 4 3 3 3 3 3
3 2 1 5 7 8 5 5 7 8 9 4 3 4 5 6 7 8 8 8 9 10 10 11 11 10 11 9 8 8 8 7 7 6 6 5 5 5 5 4 3 3 3 3
2 1 5 8 4 6 6 5 6 5 5 4 6 5 4 5 7 7 7 7 8 8 9 8 9 9 9 9 9 9 8 7 7 6 6 5 5 5 4 3 3 3 2 3
3 3 6 6 2 4 4 4 3 4 4 3 2 0 3 4 6 7 7 7 7 8 8 8 9 10 10 9 9 9 8 8 8 8 7 6 6 5 4 4 3 3 2 3
4 4 6 6 3 2 3 3 3 3 4 2 3 1 5 3 4 4 4 5 5 6 6 8 8 10 11 10 10 9 9 8 7 7 8 7 7 5 3 4 4 3 3 2
4 4 7 6 2 3 4 6 3 3 4 4 5 6 4 2 2 2 3 4 6 7 7 8 9 11 11 10 10 9 7 7 6 7 7 6 6 4 4 4 4 3 3 1
5 4 7 3 4 6 6 3 2 3 3 3 4 3 2 1 2 2 3 4 6 7 6 6 9 11 10 10 8 7 7 7 7 6 6 6 6 5 5 5 5 3 3 1
8 7 5 3 5 4 2 2 2 2 2 3 2 2 1 1 1 2 3 4 5 6 7 6 7 9 10 8 7 8 8 7 6 6 5 6 7 6 5 4 4 3 3 2
2 5 4 4 3 2 3 3 2 2 2 2 2 2 1 2 2 3 3 3 4 6 7 6 6 6 7 7 8 9 8 7 7 7 6 5 4 5 5 5 4 3 3 3
3 4 3 4 3 2 2 1 0 1 1 3 4 2 2 3 3 3 3 3 5 6 7 7 7 6 6 7 9 9 8 6 6 6 6 5 4 3 4 4 5 5 4 4
6 6 4 5 3 2 2 2 1 1 1 0 2 3 3 3 3 3 4 4 5 5 6 6 7 6 6 7 9 9 7 6 5 5 5 5 5 4 4 3 4 5 5 5
4 3 4 4 3 1 1 1 1 2 2 2 1 3 4 4 3 3 4 5 5 5 6 6 7 6 6 6 8 8 8 7 5 5 5 5 5 5 4 3 5 5 4 5
3 1 1 2 2 2 0 1 2 2 2 2 3 3 4 4 4 4 4 4 5 5 6 6 7 6 5 6 7 7 7 7 7 5 5 5 5 5 5 5 4 2 2 4
4 3 4 2 1 1 1 3 3 3 2 2 2 4 5 5 5 4 3 4 5 5 5 5 6 5 5 6 7 7 7 5 5 5 5 5 5 5 4 5 4 3 2 3
2 1 2 2 2 1 1 2 3 2 2 2 2 3 4 5 5 4 3 4 6 5 5 5 5 4 6 7 7 6 5 9 8 6 5 5 5 5 4 4 4 3 3 2
3 3 3 3 3 3 3 3 4 3 3 3 3 4 5 6 6 5 3 3 4 4 4 4 4 4 5 6 7 5 5 7 9 6 5 5 5 5 5 5 4 3 2 3
6 7 7 7 6 4 3 2 3 3 3 4 4 5 6 7 6 5 4 4 5 5 3 3 4 5 5 6 6 5 5 5 5 5 5 5 5 5 5 5 5 4 3 3
4 5 4 5 5 5 4 3 3 3 4 5 6 6 5 5 5 5 5 5 5 4 1 2 6 6 5 6 7 5 6 6 6 5 5 7 6 5 5 5 4 4 4 3
2 3 3 2 2 3 3 3 3 3 4 5 6 6 5 4 5 6 6 4 2 2 3 4 5 5 5 6 8 5 6 7 7 6 5 5 5 5 5 5 4 4 3 3
2 3 3 3 2 1 3 4 4 4 4 5 6 6 6 5 5 5 6 4 1 2 4 6 4 4 4 6 8 5 6 6 6 6 6 5 5 5 5 4 4 4 4 3
1 2 3 3 3 1 1 2 4 4 5 5 5 6 6 6 5 4 3 3 3 5 4 3 3 6 8 8 5 6 6 6 6 5 5 5 5 5 5 4 4 3 3 3
1 2 3 3 3 2 2 2 4 4 5 6 6 6 6 5 4 5 3 2 3 6 4 3 7 11 12 7 5 6 6 6 6 5 5 5 5 5 5 4 4 3 3 3
1 2 2 2 3 4 3 2 3 3 4 4 4 5 6 5 3 2 3 7 8 8 5 6 11 12 10 5 5 5 5 5 5 5 5 5 4 4 4 4 4 3 3 3
1 2 2 3 3 3 3 4 5 5 5 4 4 4 3 3 4 4 4 5 9 8 5 8 12 11 7 5 5 5 5 5 5 5 5 5 5 4 4 4 4 4 3 3
2 2 2 2 2 2 3 4 4 4 4 4 3 3 4 4 5 5 5 6 7 8 6 5 6 7 5 5 6 6 5 6 6 5 5 5 5 5 4 4 5 4 3 3
2 2 2 2 1 2 3 4 4 4 4 5 5 4 4 4 5 5 6 5 5 5 5 5 5 5 5 6 6 5 5 5 5 5 5 5 5 4 4 5 4 3 3 3
Wind_Direction
231 238 201 210 211 186 190 193 197 226 232 254 261 253 242 208 190 177 180 180 181 180 179 176 174 176 176 173 168 163 159 164 174 167 159 153 151 154 150 147 150 148 138 133
255 251 224 235 230 210 211 204 215 238 257 252 254 245 231 207 193 198 200 196 190 186 181 181 182 180 176 174 171 163 166 174 168 158 158 161 162 154 144 141 138 136 145 146
237 276 1 261 224 200 203 199 189 217 239 241 245 238 226 212 202 207 209 202 195 192 190 188 186 180 178 174 164 165 170 169 167 164 163 169 162 151 151 153 145 143 152 147
175 131 233 246 229 193 201 226 209 226 243 227 227 238 239 215 204 210 209 203 198 193 191 187 182 175 167 159 160 166 168 168 167 164 164 158 152 159 158 150 152 155 158 157
157 205 264 288 254 172 183 249 211 211 245 256 230 10 288 238 210 208 206 202 196 189 183 174 170 164 155 156 160 165 172 174 172 166 163 161 165 169 162 152 152 155 152 154
155 185 229 242 251 209 133 263 255 198 216 225 119 149 268 255 212 212 201 189 180 167 156 160 162 155 155 162 165 176 182 179 170 166 166 170 171 163 152 149 156 148 140 154
173 207 254 251 251 113 149 242 257 199 203 186 188 214 247 256 206 189 178 172 161 157 161 166 158 154 159 165 180 183 172 162 158 164 169 166 156 150 145 141 137 140 142 140
163 191 245 233 138 170 215 238 219 207 203 198 222 249 263 235 192 151 142 144 149 154 158 154 155 156 162 178 179 159 153 155 158 159 162 154 145 142 142 141 140 144 135 120
186 207 229 204 201 220 200 215 231 216 220 176 204 243 250 182 158 145 140 144 146 147 144 146 158 161 168 174 152 147 148 155 154 150 149 145 148 146 139 143 146 153 152 160
217 255 252 252 248 244 225 219 231 216 193 173 194 208 184 147 143 133 129 142 137 137 140 149 158 161 162 150 145 145 150 153 148 145 143 139 144 147 149 158 159 161 164 172
226 264 296 285 258 256 260 252 267 87 166 183 168 168 160 148 143 142 131 138 140 145 152 158 156 150 144 143 141 142 145 147 145 145 147 143 137 144 158 171 173 172 178 172
210 215 200 244 264 255 210 211 182 122 9 337 157 154 141 138 140 136 132 135 135 138 143 147 146 144 145 146 146 144 143 147 147 145 145 143 137 109 72 101 130 150 155 158
209 206 211 243 273 268 202 217 216 169 167 162 143 139 134 131 129 126 126 129 139 141 142 141 143 147 152 150 147 148 151 153 148 148 149 149 148 147 134 78 74 90 115 136
227 190 244 257 270 297 162 104 90 79 78 130 138 129 124 120 120 124 134 140 135 128 132 138 142 149 155 152 147 146 146 150 149 154 155 153 154 154 152 146 130 88 71 104
236 220 218 252 309 344 93 107 101 91 86 87 114 127 130 132 134 136 129 124 119 119 127 137 141 149 151 151 148 147 145 147 147 145 142 140 138 136 137 138 134 127 103 79
232 193 176 182 203 198 151 142 142 158 150 142 139 140 137 132 125 116 114 125 132 138 144 146 150 156 150 148 143 141 142 141 138 138 135 133 133 136 137 136 135 135 137 142
175 199 191 189 206 209 203 192 175 173 164 163 165 143 126 118 112 111 113 114 122 124 127 134 142 142 145 147 143 137 131 135 133 129 133 139 140 142 141 138 137 135 142 137
202 203 199 192 196 199 202 186 167 163 167 164 148 135 134 138 143 142 132 111 98 88 87 114 131 131 133 137 134 130 131 132 135 135 134 134 133 133 131 131 134 134 123 109
206 210 210 204 200 187 181 176 167 160 153 146 145 145 145 146 142 137 130 122 121 116 95 103 120 120 124 132 129 128 130 130 127 126 129 128 123 122 126 129 130 130 127 119
173 171 170 181 176 170 169 163 147 139 144 145 136 129 129 137 139 136 128 122 141 161 151 127 121 119 122 128 122 124 128 130 129 126 124 125 126 126 126 127 126 123 121 121
148 145 141 143 140 153 164 159 147 143 142 143 141 144 145 140 136 134 128 118 89 115 121 120 120 123 122 124 117 118 122 125 126 127 128 127 124 121 121 122 122 123 124 123
150 150 150 142 137 144 161 149 143 141 135 132 134 136 134 133 128 113 106 130 145 127 118 119 121 125 124 118 112 115 117 119 119 120 123 126 128 129 127 126 125 123 122 124
167 163 156 155 156 150 119 121 135 141 143 144 146 148 145 144 144 139 134 134 132 125 116 120 127 124 119 113 114 116 117 118 120 122 123 124 126 128 129 128 126 125 125 122
115 129 139 138 122 117 119 119 119 122 126 128 136 142 140 131 109 98 127 134 129 120 113 121 121 117 111 107 111 113 114 115 115 113 112 113 115 117 120 121 119 117 117 115
111 109 118 125 127 137 140 126 111 106 105 103 104 107 112 125 132 130 123 126 126 116 111 118 117 112 106 107 108 110 112 114 117 117 115 116 115 114 113 114 116 115 111 108
124 131 150 160 159 150 144 136 130 130 127 120 107 99 100 103 113 116 115 114 116 114 110 107 110 107 104 105 107 109 110 112 108 107 112 111 110 109 110 109 107 109 109 108
96 101 103 94 99 130 137 140 142 145 146 140 130 122 120 118 117 117 116 114 113 109 107 106 107 108 108 107 106 106 107 108 109 109 109 107 108 108 110 109 108 106 105 105